Date,TemperatureHighF,TemperatureAvgF,TemperatureLowF,DewpointHighF,DewpointAvgF,DewpointLowF,HumidityHigh,HumidityAvg,HumidityLow,PressureMaxIn,PressureMinIn,WindSpeedMaxMPH,WindSpeedAvgMPH,GustSpeedMaxMPH,PrecipitationSumIn
2012-12-1,30.8,25.0,20.2,30.0,21.9,5.0,98,88,43,31.60,31.45,2,0,6,0.00
2012-12-2,45.6,40.6,31.4,44.0,39.9,31.0,99,97,90,31.44,30.93,7,2,16,0.22
2012-12-3,51.6,42.1,28.6,45.0,39.5,28.0,99,91,69,31.19,30.91,11,2,12,0.00
2012-12-4,53.9,42.9,28.6,53.0,42.6,28.0,99,98,96,31.21,30.84,14,2,16,0.01
2012-12-5,54.3,42.4,26.5,53.0,36.2,15.0,97,79,62,31.01,30.72,12,4,20,0.08
2012-12-6,39.0,26.6,18.7,20.0,17.6,16.0,93,71,43,31.25,31.02,9,1,22,0.00
2012-12-7,37.3,30.6,18.6,37.0,28.2,17.0,98,90,80,31.22,30.97,8,1,13,0.04
2012-12-8,41.5,38.5,35.5,41.0,38.2,35.0,99,99,97,30.96,30.76,4,0,8,0.44
2012-12-9,44.8,36.4,31.2,41.0,33.4,29.0,99,89,55,31.19,30.86,8,1,15,0.14
2012-12-10,52.6,45.4,35.1,52.0,44.9,34.0,100,98,90,31.03,30.36,11,3,17,0.22
2012-12-11,44.8,36.0,27.3,42.0,30.9,21.0,98,82,60,31.04,30.43,9,2,15,0.05
2012-12-12,37.3,27.4,20.7,25.0,21.7,20.0,96,80,58,31.39,31.04,6,1,8,0.00
2012-12-13,41.8,26.1,18.2,30.0,21.8,17.0,97,85,57,31.43,31.23,4,0,12,0.00
2012-12-14,42.4,29.3,19.4,26.0,23.6,18.0,96,81,46,31.22,31.02,8,1,15,0.00
2012-12-15,41.7,30.5,24.9,28.0,21.5,10.0,95,71,44,31.26,31.11,5,0,9,0.00
2012-12-16,26.5,24.0,22.7,26.0,21.2,17.0,96,89,77,31.24,31.03,8,1,9,0.00
2012-12-17,33.1,28.8,24.7,33.0,28.1,24.0,98,97,95,31.03,30.74,5,1,11,0.00
2012-12-18,38.9,36.2,33.1,39.0,35.9,33.0,99,99,98,30.72,30.33,12,2,21,0.92
2012-12-19,37.3,35.5,33.7,36.0,32.0,30.0,99,87,80,30.95,30.35,11,4,21,0.00
2012-12-20,41.2,32.0,25.0,32.0,28.1,24.0,97,86,69,31.14,30.92,8,1,15,0.00
2012-12-21,48.1,37.2,30.7,48.0,36.5,29.0,99,97,92,30.90,29.92,22,5,33,1.14
2012-12-22,32.2,27.9,23.4,31.0,20.8,14.5,96,75,62,30.54,30.07,16,5,21,0.00
2012-12-23,32.8,27.0,18.5,25.0,19.2,14.0,84,73,59,30.77,30.55,9,2,17,0.00
2012-12-24,34.5,28.8,23.1,22.0,19.1,16.6,89,68,49,30.97,30.77,10,1,12,0.00
2012-12-25,30.6,25.4,18.1,27.0,20.6,14.0,91,82,67,31.18,30.91,6,1,12,0.00
2012-12-26,35.5,23.5,14.0,26.0,16.5,11.0,95,76,48,31.28,30.86,12,2,25,0.00
2012-12-27,31.4,28.5,23.8,31.0,27.7,23.0,97,96,95,30.82,30.26,18,4,22,0.00
2012-12-28,29.9,25.2,21.3,23.0,21.5,19.0,94,86,75,30.95,30.59,13,4,23,0.00
2012-12-29,31.0,23.1,15.2,26.0,21.2,14.0,96,92,77,30.95,30.39,7,0,10,0.00
2012-12-30,25.0,20.5,14.7,24.0,13.4,7.0,96,74,58,30.92,30.41,14,6,26,0.00
2012-12-31,27.7,22.1,12.6,23.0,17.5,8.0,90,82,70,30.97,30.69,14,3,24,0.00